Flag for India Weather past 2 weeks in Faridabad, Haryana, India

Now
82 °F

Fog.


Feels Like: 91 °F
Forecast: 84 / 100 °F
Wind: 6 mph from Southeast

Location: New Delhi Palam Airport

Current Time: Jul 26, 2014 at 6:37:55 AM

Latest Report: Jul 26, 2014 at 6:00 AM


Visibility: 1 mi

Pressure: 29.65 "Hg

Humidity: 84%

Dew point: 77 °F

Location of FaridabadLocation

Historic Weather in Faridabad — Graph

°F

Faridabad temperature yesterday

Maximum temperature yesterday: 91 °F (at 3:30 PM)
Minimum temperature yesterday: 81 °F (at 4:30 AM)
Average temperature yesterday: 86 °F

Past Weeks' High & Low Weather Summary

 TemperatureHumidityPressure
High106 °F (Jul 11, 1:00 PM)100% (Jul 17, 8:00 PM)29.65 "Hg (Jul 17, 8:00 PM)
Low79 °F (Jul 17, 8:00 PM)20% (Jul 11, 3:00 PM)29.39 "Hg (Jul 12, 5:00 PM)
Average89 °F68%29.49 "Hg
* Reported Jul 11 4:30 AM — Jul 26 5:00 AM, Faridabad, Weather by CustomWeather, © 2014

Note: Actual official high and low records may vary slightly from our data, if they occured in-between our weather recording intervals... More about our weather records

Advertising

Faridabad weather history for previous 24 hours

 ConditionsComfort  
Time TempWeatherWind HumidityBarometerVisibility
5:00 AM
Jul 26
82 °FFog.7 mph84%29.62 "Hg1 mi
4:30 AM82 °FFog.6 mph84%29.62 "Hg1 mi
3:30 AM84 °FFog.7 mph79%29.62 "Hg2 mi
3:00 AM84 °FFog.7 mph79%29.62 "Hg2 mi
2:30 AM84 °FFog.7 mph79%29.62 "Hg2 mi
2:00 AM84 °FFog.7 mph79%29.62 "Hg2 mi
1:30 AM84 °FFog.7 mph79%29.62 "Hg2 mi
1:00 AM84 °FFog.6 mph79%29.62 "Hg2 mi
12:30 AM84 °FFog.6 mph79%29.62 "Hg2 mi
12:00 AM84 °FFog.7 mph79%29.62 "Hg2 mi
11:30 PM
Jul 25
86 °FPassing clouds.6 mph70%29.65 "Hg2 mi
11:00 PM86 °FPassing clouds.6 mph70%29.65 "Hg2 mi
10:30 PM86 °FPassing clouds.N/A66%29.65 "Hg2 mi
10:00 PM86 °FPassing clouds.5 mph66%29.62 "Hg2 mi
9:30 PM88 °FPassing clouds.5 mph59%29.62 "Hg2 mi
9:00 PM88 °FPassing clouds.5 mph59%29.59 "Hg2 mi
8:00 PM90 °FPassing clouds.6 mph55%29.59 "Hg2 mi
7:30 PM90 °FScattered clouds.6 mph55%29.59 "Hg3 mi
7:00 PM90 °FScattered clouds.9 mph55%29.59 "Hg3 mi
6:30 PM90 °FScattered clouds.9 mph55%29.56 "Hg3 mi
6:00 PM91 °FScattered clouds.10 mph52%29.56 "Hg3 mi
5:30 PM91 °FScattered clouds.10 mph52%29.56 "Hg3 mi
5:00 PM91 °FScattered clouds.10 mph52%29.56 "Hg2 mi
4:00 PM91 °FScattered clouds.12 mph52%29.56 "Hg2 mi
3:30 PM91 °FScattered clouds.12 mph52%29.56 "Hg2 mi
3:00 PM90 °FBroken clouds.12 mph55%29.59 "Hg2 mi
2:30 PM90 °FBroken clouds.10 mph55%29.59 "Hg2 mi
2:00 PM90 °FBroken clouds.10 mph55%29.62 "Hg2 mi
1:30 PM88 °FBroken clouds.10 mph59%29.62 "Hg2 mi
1:00 PM88 °FBroken clouds.10 mph59%29.62 "Hg2 mi
12:30 PM88 °FBroken clouds.12 mph59%29.62 "Hg2 mi
12:00 PM88 °FBroken clouds.12 mph59%29.62 "Hg2 mi
11:30 AM88 °FBroken clouds.12 mph59%29.62 "Hg2 mi
11:00 AM88 °FBroken clouds.12 mph59%29.62 "Hg2 mi
10:30 AM86 °FBroken clouds.13 mph62%29.62 "Hg2 mi
10:00 AM86 °FBroken clouds.12 mph66%29.62 "Hg2 mi
9:30 AM84 °FFog.9 mph74%29.62 "Hg2 mi
9:00 AM84 °FFog.9 mph74%29.62 "Hg2 mi
8:30 AM82 °FFog.9 mph79%29.62 "Hg2 mi
8:00 AM82 °FFog.8 mph84%29.62 "Hg2 mi
7:00 AM81 °FFog.9 mph84%29.62 "Hg2 mi
6:30 AM81 °FFog.6 mph84%29.59 "Hg2 mi
6:00 AM81 °FFog.6 mph84%29.59 "Hg2 mi
Weather by CustomWeather, © 2014

See weather overviewHow to use our weather pages